Regional Weather Roundup
Issued by NWS

Home | Current Version | Previous Version | Text Only | Print | Product List | Glossary On
Versions: 1 2 3 4 5 6 7 8 9 10 11 12 13 14 15 16 17 18 19 20 21 22 23 24 25 26 27 28 29 30 31 32 33 34 35 36 37 38 39 40 41 42 43 44 45 46 47 48 49 50
000
ASUS43 KOAX 240710
RWRNE

WEATHER ROUNDUP FOR NEBRASKA
NATIONAL WEATHER SERVICE OMAHA NE
200 AM CDT MON JUL 24 2017

NOTES: SATELLITE DATA IS BEING USED TO AUGMENT CLOUD COVER ABOVE
       12000 FEET.
       "FAIR" INDICATES FEW OR NO CLOUDS BELOW 12,000 FEET WITH NO
       SIGNIFICANT WEATHER AND/OR OBSTRUCTIONS TO VISIBILITY.


NEZ001>004-019>022-054>056-240800-
NEBRASKA PANHANDLE

CITY           SKY/WX    TMP DP  RH WIND       PRES   REMARKS
SCOTTSBLUFF    CLEAR     79  50  36 S10       30.00S
ALLIANCE       CLEAR     67  50  54 S10       30.01S
CHADRON        CLEAR     74  50  42 SW10      29.92F
GORDON         FAIR      72  57  60 SE9       29.99S
KIMBALL        CLEAR     72  52  49 S15       30.11S
SIDNEY         CLEAR     71  53  52 S12       30.09S
$$

NEZ057>060-069>072-079>082-240800-
SOUTHWEST NEBRASKA

CITY           SKY/WX    TMP DP  RH WIND       PRES   REMARKS
NORTH PLATTE   CLEAR     66  63  90 E6        30.03S
IMPERIAL       CLEAR     70  54  56 S9        30.05S
LEXINGTON      CLEAR     71  65  82 SE8       30.04R
MCCOOK         CLEAR     70  65  84 SE7       30.03S
OGALLALA       PTCLDY    70  57  63 CALM      30.04S
$$

NEZ005>010-023>029-035>040-094-240800-
NORTH CENTRAL NEBRASKA

CITY           SKY/WX    TMP DP  RH WIND       PRES   REMARKS
VALENTINE      PTCLDY    69  55  60 E7        30.02S
AINSWORTH      PTCLDY    67  59  75 SE9       30.03F
BROKEN BOW     CLEAR     66  62  87 E5        30.04S
O`NEILL        CLEAR     65  60  82 SE3       30.04S
ORD            CLEAR     65  59  81 CALM      30.03S
THEDFORD       CLEAR     69  60  71 SE8       30.04S
$$

NEZ041-046>049-061>064-073>077-083>087-240800-
SOUTH CENTRAL NEBRASKA

CITY           SKY/WX    TMP DP  RH WIND       PRES   REMARKS
GRAND ISLAND   CLEAR     68  63  84 E7        30.03F
AURORA         CLEAR     65  63  92 E5        30.03S
HASTINGS       CLEAR     73  58  59 E9        30.03F
HEBRON         CLEAR     68  64  85 CALM      30.01S
HOLDREGE       CLEAR     68  64  85 SE8       30.03F
KEARNEY        CLEAR     68  63  84 SE8       30.03F
YORK           CLEAR     64  63  94 CALM      30.03S
$$

NEZ011>018-030>034-042>045-240800-
NORTHEAST NEBRASKA

CITY           SKY/WX    TMP DP  RH WIND       PRES   REMARKS
NORFOLK        CLEAR     63  58  83 SE7       30.03R
ALBION         CLEAR     62  59  91 CALM      30.04S
BLAIR          CLEAR     65  61  86 E3        30.02F
COLUMBUS       CLEAR     61  59  93 N5        30.03S
FREMONT        CLEAR     66  60  81 E3        30.02S
TEKAMAH        CLEAR     62  58  86 CALM      30.01F
WAYNE          CLEAR     62  61  98 CALM      30.03S
$$

NEZ050>053-065>068-078-088>093-240800-
SOUTHEAST NEBRASKA

CITY           SKY/WX    TMP DP  RH WIND       PRES   REMARKS
LINCOLN        CLEAR     69  62  78 CALM      30.01S
OMAHA EPPLEY   CLEAR     70  59  68 CALM      30.01S
BEATRICE       PTCLDY    66  62  89 NE5       30.00F
FALLS CITY     PTCLDY    69  63  81 CALM      29.98S
NEBRASKA CITY  CLEAR     66  66 100 NE6       30.00F
PLATTSMOUTH    CLEAR     66  61  84 E5        30.01S
$$

NEZ044-045-051>053-067-240800-
OMAHA AREA

CITY           SKY/WX    TMP DP  RH WIND       PRES   REMARKS
OMAHA EPPLEY   CLEAR     70  59  68 CALM      30.01S
BLAIR          CLEAR     65  61  86 E3        30.02F
FREMONT        CLEAR     66  60  81 E3        30.02S
MILLARD        PTCLDY    72  62  71 CALM      30.01S
OFFUTT AFB     PTCLDY    67  60  78 NE7       30.00F
PLATTSMOUTH    CLEAR     66  61  84 E5        30.01S
WAHOO          FAIR      64  61  90 NE6       30.01F
$$




USA.gov is the U.S. government's official web portal to all federal, state and local government web resources and services.